Ardmore Downtown, OK

6:16 AM CST on November 13, 2019 (GMT -0600)
Ardmore Downtown

Weather History for K1F0 - June, 2019

Change the Weather History Date:

Monday, June 3, 2019

  Actual Average (WUND) Record (WUND)
Temperature  
Mean Temperature 78 °F -  
Max Temperature 87 °F - - (-1)
Min Temperature 68 °F - - (-1)
Cooling Degree Days 12    
Growing Degree Days 28 (Base 50)    
Moisture  
Dew Point 68 °F    
Average Humidity 76    
Maximum Humidity 94    
Minimum Humidity 52    
Precipitation  
Precipitation 0.00 in - - ()
Sea Level Pressure  
Sea Level Pressure 29.95 in    
Wind  
Wind Speed 3 mph (South)    
Max Wind Speed 14 mph    
Max Gust Speed 24 mph    
Visibility 10 miles    
Events      
Averages and records for this station are not official NWS values.
T = Trace of Precipitation, MM = Missing Value Source: NWS Daily Summary

Daily Weather History Graph

Daily Weather History Graph

Search for Another Location

Airport or City:

Astronomy

Jun. 03, 2019 Rise Set
Actual Time 6:17 AM CDT 8:36 PM CDT
Civil Twilight 5:48 AM CDT 9:05 PM CDT
Nautical Twilight 5:13 AM CDT 9:40 PM CDT
Astronomical Twilight 4:34 AM CDT 10:19 PM CDT
Moon 6:36 AM CDT (6/3) 9:03 PM CDT (6/3)
Length of Visible Light 15h 16m
Length of Day
14h 18m
New Moon, 0% of the Moon is Illuminated
Jun 3
New Moon
Jun 10
First Quarter
Jun 17
Full
Jun 25
Last Quarter
Jul 2
New

Hourly Weather History & Observations

Time (CDT) Temp. Heat Index Dew Point Humidity Pressure Visibility Wind Dir Wind Speed Gust Speed Precip Events Conditions
12:15 AM 69.8 °F - 66.2 °F 88% 29.98 in 10.0 mi Calm Calm - N/A   Clear
12:35 AM 69.8 °F - 68.0 °F 94% 29.97 in 10.0 mi Calm Calm - N/A   Clear
12:55 AM 69.8 °F - 68.0 °F 94% 29.97 in 10.0 mi Calm Calm - N/A   Clear
1:15 AM 69.8 °F - 68.0 °F 94% 29.96 in 10.0 mi Calm Calm - N/A   Clear
1:55 AM 68.0 °F - 66.2 °F 94% 29.96 in 10.0 mi Calm Calm - N/A   Scattered Clouds
2:15 AM 68.0 °F - 66.2 °F 94% 29.95 in 10.0 mi Calm Calm - N/A   Clear
2:35 AM 68.0 °F - 66.2 °F 94% 29.95 in 10.0 mi Calm Calm - N/A   Clear
2:55 AM 69.8 °F - 68.0 °F 94% 29.96 in 10.0 mi Calm Calm - N/A   Mostly Cloudy
3:15 AM 69.8 °F - 66.2 °F 88% 29.95 in 10.0 mi Calm Calm - N/A   Mostly Cloudy
3:35 AM 69.8 °F - 68.0 °F 94% 29.95 in 10.0 mi Calm Calm - N/A   Mostly Cloudy
3:55 AM 69.8 °F - 66.2 °F 88% 29.94 in 10.0 mi Calm Calm - N/A   Scattered Clouds
4:15 AM 68.0 °F - 66.2 °F 94% 29.94 in 10.0 mi Calm Calm - N/A   Mostly Cloudy
4:35 AM 69.8 °F - 68.0 °F 94% 29.94 in 10.0 mi Calm Calm - N/A   Overcast
4:55 AM 69.8 °F - 68.0 °F 94% 29.94 in 10.0 mi Calm Calm - N/A   Overcast
5:15 AM 69.8 °F - 68.0 °F 94% 29.93 in 10.0 mi Calm Calm - N/A   Overcast
5:35 AM 69.8 °F - 68.0 °F 94% 29.94 in 10.0 mi Calm Calm - N/A   Overcast
5:55 AM 71.6 °F - 68.0 °F 88% 29.94 in 10.0 mi Calm Calm - N/A   Overcast
6:35 AM 71.6 °F - 68.0 °F 88% 29.95 in 10.0 mi Calm Calm - N/A   Overcast
6:55 AM 71.6 °F - 68.0 °F 88% 29.96 in 10.0 mi Calm Calm - N/A   Mostly Cloudy
7:15 AM 71.6 °F - 68.0 °F 88% 29.96 in 10.0 mi Calm Calm - N/A   Scattered Clouds
7:35 AM 71.6 °F - 68.0 °F 88% 29.97 in 10.0 mi Calm Calm - N/A   Scattered Clouds
7:50 AM 71.6 °F - 69.8 °F 94% 29.97 in 10.0 mi Calm Calm - N/A   Scattered Clouds
8:35 AM 73.4 °F - 69.8 °F 88% 29.97 in 10.0 mi Calm Calm - N/A   Mostly Cloudy
10:15 AM 77.0 °F - 71.6 °F 83% 29.96 in 10.0 mi SSE 8.1 mph - N/A   Scattered Clouds
10:35 AM 78.8 °F - 71.6 °F 78% 29.96 in 10.0 mi SSE 10.4 mph - N/A   Scattered Clouds
10:50 AM 78.8 °F - 71.6 °F 78% 29.95 in 10.0 mi SSE 8.1 mph - N/A   Scattered Clouds
11:15 AM 80.6 °F 84.6 °F 71.6 °F 74% 29.96 in 10.0 mi South 6.9 mph - N/A   Clear
11:35 AM 82.4 °F 87.2 °F 71.6 °F 70% 29.97 in 10.0 mi SSE 4.6 mph - N/A   Clear
11:55 AM 82.4 °F 86.3 °F 69.8 °F 66% 29.97 in 10.0 mi SSW 3.5 mph - N/A   Clear
12:15 PM 82.4 °F 86.3 °F 69.8 °F 66% 29.97 in 10.0 mi Calm Calm - N/A   Clear
12:35 PM 82.4 °F 86.3 °F 69.8 °F 66% 29.97 in 10.0 mi SSW 3.5 mph - N/A   Scattered Clouds
12:55 PM 82.4 °F 87.2 °F 71.6 °F 70% 29.97 in 10.0 mi West 4.6 mph - N/A   Mostly Cloudy
1:15 PM 82.4 °F 87.2 °F 71.6 °F 70% 29.95 in 10.0 mi Calm Calm - N/A   Mostly Cloudy
1:35 PM 86.0 °F 90.4 °F 69.8 °F 58% 29.94 in 10.0 mi SSW 5.8 mph - N/A   Scattered Clouds
1:55 PM 86.0 °F 90.4 °F 69.8 °F 58% 29.94 in 10.0 mi West 5.8 mph - N/A   Scattered Clouds
2:15 PM 86.0 °F 90.4 °F 69.8 °F 58% 29.92 in 10.0 mi West 8.1 mph - N/A   Scattered Clouds
2:35 PM 86.0 °F 90.4 °F 69.8 °F 58% 29.92 in 10.0 mi West 9.2 mph - N/A   Scattered Clouds
2:55 PM 86.0 °F 90.4 °F 69.8 °F 58% 29.92 in 10.0 mi West 6.9 mph - N/A   Scattered Clouds
3:15 PM 87.8 °F 92.6 °F 69.8 °F 55% 29.91 in 5.0 mi West 6.9 mph - N/A   Haze
3:35 PM 86.0 °F 90.4 °F 69.8 °F 58% 29.91 in 7.0 mi WSW 6.9 mph - N/A   Clear
3:55 PM 86.0 °F 90.4 °F 69.8 °F 58% 29.91 in 10.0 mi West 8.1 mph - N/A   Clear
4:15 PM 86.0 °F 90.4 °F 69.8 °F 58% 29.90 in 10.0 mi WSW 6.9 mph - N/A   Clear
4:35 PM 87.8 °F 92.6 °F 69.8 °F 55% 29.90 in 10.0 mi WSW 6.9 mph - N/A   Clear
4:55 PM 87.8 °F 92.6 °F 69.8 °F 55% 29.89 in 10.0 mi WSW 5.8 mph - N/A   Clear
5:15 PM 87.8 °F 92.6 °F 69.8 °F 55% 29.90 in 10.0 mi WSW 4.6 mph - N/A   Clear
5:35 PM 87.8 °F 91.4 °F 68.0 °F 52% 29.89 in 10.0 mi SW 3.5 mph - N/A   Clear
5:55 PM 87.8 °F 92.6 °F 69.8 °F 55% 29.90 in 10.0 mi South 5.8 mph - N/A   Clear
6:15 PM 87.8 °F 92.6 °F 69.8 °F 55% 29.89 in 10.0 mi Calm Calm - N/A   Clear
6:35 PM 87.8 °F 92.6 °F 69.8 °F 55% 29.89 in 10.0 mi South 3.5 mph - N/A   Clear
6:55 PM 86.0 °F 90.4 °F 69.8 °F 58% 29.88 in 10.0 mi ESE 3.5 mph - N/A   Clear
7:15 PM 86.0 °F 91.8 °F 71.6 °F 62% 29.90 in 10.0 mi Calm Calm - N/A   Clear
7:35 PM 80.6 °F 83.2 °F 68.0 °F 65% 29.93 in 10.0 mi ESE 13.8 mph 24.2 mph N/A   Scattered Clouds
7:55 PM 77.0 °F - 66.2 °F 69% 29.94 in 10.0 mi ESE 11.5 mph 21.9 mph N/A   Overcast
8:15 PM 75.2 °F - 64.4 °F 69% 29.95 in 10.0 mi ESE 11.5 mph 21.9 mph N/A   Scattered Clouds
8:35 PM 73.4 °F - 64.4 °F 73% 29.97 in 10.0 mi East 11.5 mph 20.7 mph N/A   Mostly Cloudy
8:55 PM 71.6 °F - 64.4 °F 78% 29.97 in 10.0 mi ESE 11.5 mph 19.6 mph N/A   Overcast
9:15 PM 71.6 °F - 64.4 °F 78% 29.98 in 10.0 mi ESE 9.2 mph 18.4 mph N/A   Mostly Cloudy
9:35 PM 71.6 °F - 64.4 °F 78% 29.97 in 10.0 mi SE 6.9 mph - N/A   Scattered Clouds
9:55 PM 71.6 °F - 64.4 °F 78% 29.97 in 10.0 mi SE 8.1 mph - N/A   Clear
10:15 PM 69.8 °F - 66.2 °F 88% 29.98 in 10.0 mi SE 6.9 mph - N/A   Clear
10:35 PM 69.8 °F - 66.2 °F 88% 29.98 in 10.0 mi SSE 8.1 mph - N/A   Clear
10:55 PM 69.8 °F - 66.2 °F 88% 29.98 in 10.0 mi SE 8.1 mph 16.1 mph N/A   Clear
11:15 PM 71.6 °F - 66.2 °F 83% 29.98 in 10.0 mi SE 5.8 mph - N/A   Clear
11:35 PM 71.6 °F - 66.2 °F 83% 29.98 in 10.0 mi SSE 4.6 mph - N/A   Clear
11:55 PM 71.6 °F - 68.0 °F 88% 29.97 in 10.0 mi SSE 8.1 mph - N/A   Clear